Location: ???? ??
(36.0534°N, 43.5630°E)
Time: 15:21:49
(UTC+00:00)

Daily predictions for brighter satellites

Satellite Brightness Start Highest point End
(mag) Time Altitude Azimuth Time Altitude Azimuth Time Altitude Azimuth
Cosmos 2360 Rocket 2.2 15:26:59 10° NNW 15:32:38 75° ENE 15:38:17 10° SSE
Cosmos 1743 3.8 15:32:15 10° SSW 15:35:58 50° W 15:39:44 10° N
Cosmos 2184 Rocket 4.2 15:34:15 10° N 15:40:17 49° E 15:46:20 10° SSE
Envisat 3.6 15:36:06 10° S 15:41:07 62° W 15:46:10 10° NNW
CZ-2D R/B 3.7 15:37:42 10° SE 15:41:15 39° ENE 15:44:49 10° N
Cosmos 2219 4.2 15:36:47 10° SSE 15:41:22 25° ESE 15:45:56 10° NE
Cosmos 2227 Rocket 3.7 15:39:23 10° ESE 15:41:48 13° E 15:44:14 10° ENE
Okean 1 Rocket 3.7 15:40:42 10° SSE 15:44:33 33° E 15:48:26 10° NNE
H-2A R/B 3.8 15:43:54 10° ENE 15:45:12 11° ENE 15:46:29 10° NE
Meteor 2-9 Rocket 4.2 15:39:36 10° S 15:45:23 72° E 15:51:03 10° NNE
Cosmos 405 3.0 15:42:11 10° N 15:45:41 84° W 15:49:09 10° S
ASTEX 1 4.4 15:44:19 10° NE 15:48:19 25° E 15:52:17 10° SE
Meteor 1-21 4.3 15:42:54 10° N 15:48:26 57° E 15:53:58 10° SSE
Okean 2 Rocket 4.3 15:45:13 10° SSW 15:49:31 49° W 15:53:53 10° N
Cosmos 2251 Rocket 3.7 15:45:05 10° N 15:50:23 57° ENE 15:55:38 10° SSE
Cosmos 2297 Rocket 3.5 15:48:56 10° SE 15:52:36 18° E 15:56:16 10° ENE
SL-16 R/B 4.4 15:47:58 10° NW 15:52:44 28° WSW 15:57:28 10° SSW
Cosmos 1975 4.3 15:53:44 10° SSW 15:57:29 40° W 16:01:16 10° N
PSLV R/B 4.1 15:56:51 10° SSW 15:59:04 23° SSE 15:59:59 19° ESE
IRS-1A Rocket 4.4 15:54:43 10° SSE 16:00:18 55° ENE 16:05:49 10° N
GP-B 3.1 15:56:23 10° N 16:00:47 60° E 16:05:09 10° S
Meteor 2-15 Rocket 4.4 15:56:28 10° S 16:02:32 68° E 16:08:39 10° NNE
Meteor 2-15 4.4 15:57:07 10° S 16:03:15 87° E 16:09:26 10° N
DELTA 2 R/B (1) 3.9 15:59:00 10° SW 16:04:25 51° SSE 16:08:47 16° E
Cosmos 1842 3.2 16:00:42 10° N 16:04:40 87° E 16:08:35 10° S
Nadezhda 1 Rocket 3.9 15:58:44 10° S 16:04:44 68° E 16:10:46 10° NNE
GEOS 3 Rocket 4.0 16:03:09 14° ESE 16:07:18 46° NE 16:12:10 10° NNW
Cosmos 1544 2.9 16:03:46 10° S 16:07:20 71° E 16:10:55 10° NNE
Cosmos 2327 Rocket 4.4 16:03:55 10° N 16:10:06 64° E 16:16:09 10° SSE
SAR-Lupe-2 3.5 16:07:42 10° NNE 16:11:16 63° ESE 16:14:48 10° S
Cosmos 1025 Rocket 2.9 16:07:56 10° N 16:12:13 89° W 16:16:29 10° S
Cosmos 1536 Rocket 3.8 16:08:36 10° NNW 16:12:55 72° W 16:17:12 10° S
USA 186 2.9 16:12:54 24° E 16:13:26 26° ENE 16:16:18 10° NNE
YAOGAN 1 4.2 16:10:04 10° SSW 16:14:04 37° W 16:18:05 10° NNW
Cosmos 405 Rocket 4.5 16:16:14 15° NE 16:16:14 15° NE 16:17:18 10° NE
GPS 2-05 Rocket1 3.5 16:14:05 10° W 16:16:35 31° SSW 16:17:32 24° SSE
Cosmos 2333 Rocket 2.3 16:11:41 10° NNW 16:17:19 57° ENE 16:21:58 15° SE
ISS -3.4 16:14:52 10° SSW 16:18:01 41° SE 16:18:57 32° E
Lacrosse 4 Rocket 4.3 16:16:35 10° WNW 16:18:58 15° WSW 16:21:21 10° SW
Ariane Rocket 3.1 16:18:18 10° S 16:23:21 76° WSW 16:28:26 10° NNW
NOSS 3-4 (A) 4.4 16:17:51 10° NNW 16:24:32 41° NE 16:28:39 24° ESE
NOSS 3-4 (C) 4.4 16:17:58 10° NNW 16:24:38 40° NE 16:28:42 24° ESE
Cosmos 2237 Rocket 3.2 16:22:41 10° N 16:27:26 26° ENE 16:28:49 24° E
Cosmos 389 Rocket 4.0 16:26:12 10° NNE 16:27:53 20° NE 16:27:53 20° NE
Cosmos 2056 Rocket 3.8 16:26:06 10° S 16:31:14 46° ESE 16:36:25 10° NNE
Cosmos 1441 Rocket 4.1 16:28:27 10° SSW 16:32:10 49° W 16:35:52 10° N
CZ-2C R/B 4.5 16:32:54 20° ENE 16:32:54 20° ENE 16:36:39 10° NNE
CZ-4 R/B 4.4 16:30:59 10° SW 16:33:05 14° W 16:35:13 10° WNW
Cosmos 1980 4.4 16:31:33 10° N 16:36:37 33° ENE 16:37:49 30° E
Cosmos 407 Rocket 4.1 16:36:09 10° N 16:40:48 34° ENE 16:41:18 34° E
COSMOS 2455 3.5 16:36:43 10° NW 16:42:34 53° WSW 16:48:21 10° S
Cosmos 1624 Rocket 3.9 16:38:17 10° S 16:43:24 63° ESE 16:48:32 10° NNE
Cosmos 2181 Rocket 4.0 16:39:44 10° SSE 16:45:44 55° E 16:51:51 10° NNE
Cosmos 2341 Rocket 3.9 16:42:45 10° N 16:48:57 62° E 16:52:23 27° SSE
Meteor 1-4 Rocket 4.4 16:45:51 10° NNE 16:47:06 19° NNE 16:47:06 19° NNE
CZ-2C R/B 4.2 16:47:56 10° N 16:52:18 58° WNW 16:56:37 10° SSW
SPOT 3 Rocket 3.4 16:50:32 34° SSE 16:52:50 74° ENE 16:57:58 10° N
ADEOS Rocket 3.5 16:46:31 10° NNE 16:53:56 65° ESE 17:01:38 10° S
SL-16 R/B 3.9 16:53:20 10° NNE 16:56:21 17° NE 16:56:21 17° NE
SJ-6B 2.8 16:56:30 58° S 16:57:17 89° WSW 17:01:25 10° NNW
Aureole 1 Rocket 4.4 16:54:40 10° NNW 16:58:59 36° W 17:01:24 17° SSW
Cosmos 1707 3.1 16:56:27 10° NNW 17:00:20 64° W 17:01:18 46° SSW
Cosmos 1455 Rocket 3.6 17:02:17 44° NE 17:02:17 44° NE 17:05:29 10° NNE
Cosmos 2219 Rocket 2.7 16:59:10 10° NNW 17:04:37 56° WSW 17:08:05 22° S
COSMOS 2428 3.4 17:02:37 10° NNW 17:08:06 51° WSW 17:11:43 21° S
ATLAS 2AS CENTAUR R/B 2.8 17:00:48 10° NW 17:08:20 78° WSW 17:11:29 36° SSE
Cosmos 1140 Rocket 4.2 17:03:31 10° N 17:07:27 37° NE 17:07:27 37° NE
Cosmos 2218 Rocket 4.1 17:02:54 10° N 17:09:06 53° E 17:09:28 52° E
Cosmos 2366 rocket 4.1 17:07:57 10° N 17:14:10 54° E 17:14:12 54° E
SL-08 RB Rocket 4.4 17:19:12 44° NNE 17:19:12 44° NNE 17:22:31 10° N
Lacrosse 5 rocket 3.2 17:16:28 10° SW 17:17:44 20° SW 17:17:44 20° SW
Cosmos 2084 Rocket 3.9 17:16:03 10° SW 17:20:04 62° W 17:20:04 62° W
H-2A R/B 1.9 17:23:45 75° WSW 17:23:54 75° W 17:28:53 10° NNW
SL-8 Rocket 3.8 17:18:48 10° N 17:25:01 86° E 17:25:53 68° SSE
Cosmos 2227 Rocket 2.3 17:19:30 10° SSW 17:25:07 71° WNW 17:30:48 10° NNE
Cosmos 2219 4.5 17:19:51 10° SW 17:25:13 40° WNW 17:30:37 10° N
Resurs 01 Rocket 3.1 17:28:08 29° N 17:28:08 29° N 17:30:24 10° N
Meteor 2-17 Rocket 4.5 17:24:54 10° N 17:30:57 75° W 17:32:17 55° SSW
ARGOS 3.2 17:30:58 66° SW 17:31:25 70° WSW 17:36:47 10° NNW
Cosmos 2297 Rocket 2.8 17:30:36 10° SW 17:36:06 54° WNW 17:41:39 10° NNE
Cosmos 1959 Rocket 4.3 17:33:08 10° N 17:39:05 85° NNW 17:39:05 85° NNW
DELTA 2 R/B (1) 4.2 17:45:12 10° W 17:49:34 53° WNW 17:49:34 53° WNW
CZ-3A R/B 4.4 17:07:24 10° WSW 18:03:23 51° S 18:05:10 49° S
Cosmos 2237 Rocket 3.4 18:06:18 10° NW 18:10:39 37° W 18:10:39 37° W
SL-16 R/B 4.2 18:36:03 10° NNW 18:38:14 24° NW 18:38:14 24° NW
CENTAUR R/B 4.3 23:11:05 25° ENE 23:11:05 25° ENE 23:14:19 10° NE
Cosmos 1943 Rocket 3.7 23:44:56 31° NNE 23:44:56 31° NNE 23:47:45 10° NNE
